Regional Weather Roundup
Issued by NWS Green Bay, WI

Home | Current Version | Previous Version | Graphics & Text | Print | Product List | Glossary Off
Versions: 1 2 3 4 5 6 7 8 9 10 11 12 13 14 15 16 17 18 19 20 21 22 23 24 25 26 27 28 29 30 31 32 33 34 35 36 37 38 39 40 41 42 43 44 45 46 47 48 49 50

000
ASUS43 KGRB 241811
RWRGRB

NORTH-CENTRAL AND NORTHEAST WISCONSIN REGIONAL WEATHER ROUNDUP
NATIONAL WEATHER SERVICE GREEN BAY WI
100 PM CDT MON APR 24 2017

WIZ005-009-010>012-018-019-241900-
NORTH CENTRAL WISCONSIN

CITY           SKY/WX    TMP DP  RH WIND       PRES   REMARKS
IRONWOOD       CLOUDY    57  33  40 S10G17    29.83F
MANITOWISH WTR CLOUDY    59  33  37 S10       29.85F
ARBOR VITAE    MOSUNNY   60  32  34 S15       29.86F
EAGLE RIVER    SUNNY     59  29  32 S9G17     29.88F
LAND O LAKES   MOSUNNY   59  31  34 S8G18     29.90F
RHINELANDER    SUNNY     59  33  37 S13G18    29.89F
PHILLIPS       CLOUDY    62  34  35 S15G22    29.84F
ANTIGO         MOSUNNY   57  35  43 S10G21    29.93F
TOMAHAWK       MOSUNNY   60  35  38 S6        29.88F
MERRILL        MOSUNNY   62  33  34 S7G18     29.90F
$$

WIZ013-073-241900-
NORTHEAST WISCONSIN

CITY           SKY/WX    TMP DP  RH WIND       PRES   REMARKS
IRON MOUNTAIN  MOSUNNY   57  33  40 S8        29.94F
MARINETTE      CLOUDY    48  36  63 E12       29.99F
OCONTO         MOSUNNY   53  40  60 E6        29.97F
$$

WIZ017-030-035>037-045-241900-
CENTRAL WISCONSIN

CITY           SKY/WX    TMP DP  RH WIND       PRES   REMARKS
MEDFORD        PTSUNNY   58  37  45 S13G21    29.86F
WAUSAU         MOSUNNY   63  34  33 S14       29.88F
MOSINEE        PTSUNNY   61  34  36 SE13      29.91F
MARSHFIELD     PTSUNNY   64  35  34 S13G22    29.86F
WISC RAPIDS    CLOUDY    67  30  25 S18G25    29.89F
STEVENS POINT  CLOUDY    63  32  31 S17       29.90F
WAUPACA        CLOUDY    64  38  39 E7        29.94F
SHAWANO        CLOUDY    61  39  43 SE6       29.96F
CLINTONVILLE   CLOUDY    59  36  41 S3        29.95F
WAUTOMA        CLOUDY    66  35  31 MISG        N/A
$$

WIZ038-039-048-051-241900-
FOX VALLEY

CITY           SKY/WX    TMP DP  RH WIND       PRES   REMARKS
NWS GREEN BAY  CLOUDY    57  46  66 NE12      29.96F
APPLETON       PTSUNNY   61  34  36 SE6       29.94F
OSHKOSH        CLOUDY    59  44  57 NE6       29.93F
FOND DU LAC    CLOUDY    67  34  29 S15       29.92F
$$

WIZ022-050-052-241900-
EAST CENTRAL WISCONSIN

CITY           SKY/WX    TMP DP  RH WIND       PRES   REMARKS
EPHRAIM        FAIR      51  40  65 S7        29.98F
WASHINGTON ISL MOCLDY    46  35  64 E9        30.01F
STURGEON BAY   MOSUNNY   54  41  61 SE8       29.98F
MANITOWOC      MOSUNNY   52  42  69 SE10      29.98F
SHEBOYGAN      MOSUNNY   58  44  60 SE10      29.96F
$$

LMZ563-521-522-541>543-241900-
LAKESHORE

STATION/POSITION TIME  TEMP    WIND        PRES    VSBY  WAVE
                       AIR SEA DIR/SP/G                  HT/PER
                 (UTC) (F)     (DEG/KT/KT) (MB)    (MI)  (FT/S)
SHEBOYGAN LKSHOR 1800   44     160/ 13/ 13 1015.0F
KEWAUNEE LKSHORE 1748   44     150/  6/  9 1015.1F
NORTHPORT PIER   1740   39      90/ 11/ 13 1016.6F
N MID LAKE BUOY  1750   38 37   80/ 12/ 14 1018.1F         2/ 4
CHAMBERS ISLAND  1740   42     360/  9/ 10 1015.6F
MENOMINEE LKSHOR 1748   41      30/ 13/ 14 1014.8F
$$




USA.gov is the U.S. government's official web portal to all federal, state and local government web resources and services.